User: anonymous   Login
Location: Unspecified
(0.0000°N, 0.0000°E)
Time: 16:08:40
(UTC+01:00)
Language:

Cosmos 1295 Rocket - Orbit

View from above orbital plane
View from above orbital plane
View from above satellite
View from above satellite

Ground track
Ground track

The orbit data is extracted from the following two-line orbital elements,

1 12682U 81077B   14302.74205554  .00000073  00000-0  56690-4 0  8072
2 12682 082.9199 015.2016 0034962 158.8252 349.3685 13.78465602670406
Epoch (UTC): 29 October 2014 17:48:33
Eccentricity: 0.0034962
inclination: 82.9199°
perigee height: 943 km
apogee height: 995 km
right ascension of ascending node: 15.2016°
argument of perigee: 158.8252°
revolutions per day: 13.78465602
mean anomaly at epoch: 349.3685°
orbit number at epoch: 67040

The dashed part of the orbit path shows where the satellite is in the earth's shadow,  

DLR